Time,TemperatureF,DewpointF,PressureIn,WindDirection,WindDirectionDegrees,WindSpeedMPH,WindSpeedGustMPH,Humidity,HourlyPrecipIn,Conditions,Clouds,dailyrainin,SoftwareType,DateUTC
2013-07-28 00:02:00,55.0,50.0,29.97,WNW,301,0.0,0.0,84,0.00,,,0.00,,2013-07-28 07:02:00,
2013-07-28 02:43:00,50.0,48.0,29.96,WNW,301,0.0,0.0,93,0.00,,,0.00,,2013-07-28 09:43:00,
2013-07-28 02:53:00,50.0,48.0,29.96,WNW,301,0.0,0.0,93,0.00,,,0.00,,2013-07-28 09:53:00,
2013-07-28 03:02:00,50.0,48.0,29.96,WNW,301,0.0,0.0,93,0.00,,,0.00,,2013-07-28 10:02:00,
2013-07-28 05:11:00,47.0,45.0,29.96,WNW,301,0.0,0.0,93,0.00,,,0.00,,2013-07-28 12:11:00,
2013-07-28 05:53:00,46.0,44.0,29.97,WNW,302,0.0,0.0,93,0.00,,,0.00,,2013-07-28 12:53:00,
2013-07-28 06:02:00,46.0,45.0,29.97,WNW,301,0.0,0.0,95,0.00,,,0.00,,2013-07-28 13:02:00,
2013-07-28 07:33:00,48.0,47.0,29.98,WNW,302,0.0,0.0,96,0.00,,,0.00,,2013-07-28 14:33:00,
2013-07-28 07:53:00,51.0,50.0,29.98,WNW,301,0.0,0.0,96,0.00,,,0.00,,2013-07-28 14:53:00,
2013-07-28 08:02:00,53.0,52.0,29.98,WNW,302,0.0,0.0,96,0.00,,,0.00,,2013-07-28 15:02:00,
2013-07-28 08:12:00,53.0,52.0,29.98,WNW,302,0.0,0.0,96,0.00,,,0.00,,2013-07-28 15:12:00,
2013-07-28 08:22:00,54.0,53.0,29.99,WNW,301,0.0,3.0,96,0.00,,,0.00,,2013-07-28 15:22:00,
2013-07-28 08:32:00,55.0,54.0,29.99,SSE,164,1.0,5.0,96,0.00,,,0.00,,2013-07-28 15:32:00,
2013-07-28 08:53:00,56.0,53.0,29.99,SE,130,0.0,5.0,91,0.00,,,0.00,,2013-07-28 15:53:00,
2013-07-28 09:22:00,57.0,53.0,29.99,SW,229,2.0,6.0,87,0.00,,,0.00,,2013-07-28 16:22:00,
2013-07-28 09:33:00,58.0,53.0,29.99,ESE,109,2.0,9.0,84,0.00,,,0.00,,2013-07-28 16:33:00,
2013-07-28 09:43:00,58.0,53.0,29.99,SSW,208,1.0,6.0,83,0.00,,,0.00,,2013-07-28 16:43:00,
2013-07-28 09:52:00,58.0,53.0,29.99,SSW,208,1.0,6.0,83,0.00,,,0.00,,2013-07-28 16:52:00,
2013-07-28 10:02:00,59.0,53.0,29.99,SSE,147,1.0,9.0,81,0.00,,,0.00,,2013-07-28 17:02:00,
2013-07-28 10:12:00,59.0,53.0,29.99,SSE,147,1.0,9.0,81,0.00,,,0.00,,2013-07-28 17:12:00,
2013-07-28 10:22:00,59.0,53.0,29.99,South,191,0.0,5.0,81,0.00,,,0.00,,2013-07-28 17:22:00,
2013-07-28 10:43:00,61.0,54.0,29.99,SSW,192,1.0,5.0,77,0.00,,,0.00,,2013-07-28 17:43:00,
2013-07-28 10:53:00,61.0,54.0,29.99,SSW,192,1.0,5.0,77,0.00,,,0.00,,2013-07-28 17:53:00,
2013-07-28 11:02:00,61.0,54.0,29.99,South,175,1.0,6.0,77,0.00,,,0.00,,2013-07-28 18:02:00,
2013-07-28 11:12:00,61.0,54.0,29.99,South,175,1.0,6.0,77,0.00,,,0.00,,2013-07-28 18:12:00,
2013-07-28 11:22:00,61.0,54.0,29.99,SSE,150,2.0,6.0,77,0.00,,,0.00,,2013-07-28 18:22:00,
2013-07-28 11:32:00,61.0,54.0,29.99,SSE,166,1.0,6.0,77,0.00,,,0.00,,2013-07-28 18:32:00,
2013-07-28 11:42:00,62.0,54.0,29.99,SSE,167,2.0,5.0,75,0.00,,,0.00,,2013-07-28 18:42:00,
2013-07-28 11:52:00,62.0,54.0,29.99,SSE,167,2.0,5.0,75,0.00,,,0.00,,2013-07-28 18:52:00,
2013-07-28 12:02:00,63.0,55.0,29.99,WSW,238,2.0,5.0,76,0.00,,,0.00,,2013-07-28 19:02:00,
2013-07-28 12:12:00,63.0,55.0,29.99,WSW,238,2.0,5.0,76,0.00,,,0.00,,2013-07-28 19:12:00,
2013-07-28 12:22:00,65.0,55.0,29.98,WSW,250,2.0,9.0,70,0.00,,,0.00,,2013-07-28 19:22:00,
2013-07-28 12:32:00,68.0,57.0,29.98,SW,229,1.0,10.0,68,0.00,,,0.00,,2013-07-28 19:32:00,
2013-07-28 12:43:00,68.0,57.0,29.98,SW,229,1.0,10.0,68,0.00,,,0.00,,2013-07-28 19:43:00,
2013-07-28 12:52:00,70.0,57.0,29.97,WSW,247,3.0,5.0,63,0.00,,,0.00,,2013-07-28 19:52:00,
2013-07-28 13:02:00,70.0,57.0,29.98,SW,230,3.0,7.0,64,0.00,,,0.00,,2013-07-28 20:02:00,
2013-07-28 13:12:00,70.0,57.0,29.98,SW,230,3.0,7.0,64,0.00,,,0.00,,2013-07-28 20:12:00,
2013-07-28 13:22:00,71.0,56.0,29.97,West,263,2.0,8.0,60,0.00,,,0.00,,2013-07-28 20:22:00,
2013-07-28 13:32:00,70.0,56.0,29.97,SE,129,0.0,5.0,61,0.00,,,0.00,,2013-07-28 20:32:00,
2013-07-28 13:43:00,70.0,56.0,29.97,SE,129,0.0,5.0,61,0.00,,,0.00,,2013-07-28 20:43:00,
2013-07-28 13:53:00,71.0,55.0,29.97,SW,236,0.0,5.0,58,0.00,,,0.00,,2013-07-28 20:53:00,
2013-07-28 14:02:00,72.0,56.0,29.96,ENE,77,3.0,6.0,57,0.00,,,0.00,,2013-07-28 21:02:00,
2013-07-28 14:11:00,72.0,56.0,29.96,ENE,77,3.0,6.0,57,0.00,,,0.00,,2013-07-28 21:11:00,
2013-07-28 14:32:00,73.0,56.0,29.96,WSW,244,3.0,6.0,56,0.00,,,0.00,,2013-07-28 21:32:00,
2013-07-28 14:43:00,73.0,56.0,29.96,WSW,244,3.0,6.0,56,0.00,,,0.00,,2013-07-28 21:43:00,
2013-07-28 14:52:00,74.0,58.0,29.96,West,261,2.0,7.0,57,0.00,,,0.00,,2013-07-28 21:52:00,
2013-07-28 15:01:00,74.0,57.0,29.95,South,169,2.0,7.0,55,0.00,,,0.00,,2013-07-28 22:01:00,
2013-07-28 15:11:00,74.0,57.0,29.95,South,169,2.0,7.0,55,0.00,,,0.00,,2013-07-28 22:11:00,
2013-07-28 15:32:00,75.0,58.0,29.96,WNW,295,1.0,9.0,55,0.00,,,0.00,,2013-07-28 22:32:00,
2013-07-28 15:43:00,75.0,57.0,29.95,West,259,2.0,5.0,53,0.00,,,0.00,,2013-07-28 22:43:00,
2013-07-28 15:52:00,75.0,56.0,29.95,West,278,3.0,10.0,52,0.00,,,0.00,,2013-07-28 22:52:00,
2013-07-28 16:02:00,75.0,56.0,29.95,West,278,3.0,10.0,52,0.00,,,0.00,,2013-07-28 23:02:00,
2013-07-28 16:11:00,75.0,57.0,29.95,SSW,209,2.0,9.0,53,0.00,,,0.00,,2013-07-28 23:11:00,
2013-07-28 16:22:00,75.0,56.0,29.95,SSW,206,1.0,7.0,52,0.00,,,0.00,,2013-07-28 23:22:00,
2013-07-28 16:32:00,75.0,56.0,29.95,SSW,206,1.0,7.0,52,0.00,,,0.00,,2013-07-28 23:32:00,
2013-07-28 16:43:00,74.0,56.0,29.95,SSW,202,3.0,8.0,54,0.00,,,0.00,,2013-07-28 23:43:00,
2013-07-28 16:53:00,74.0,56.0,29.94,South,177,1.0,8.0,53,0.00,,,0.00,,2013-07-28 23:53:00,
2013-07-28 17:02:00,73.0,56.0,29.93,SSE,155,3.0,7.0,56,0.00,,,0.00,,2013-07-29 00:02:00,
2013-07-28 17:11:00,73.0,56.0,29.93,SSE,155,3.0,7.0,56,0.00,,,0.00,,2013-07-29 00:11:00,
2013-07-28 17:21:00,73.0,56.0,29.94,WSW,249,2.0,5.0,55,0.00,,,0.00,,2013-07-29 00:21:00,
2013-07-28 17:43:00,73.0,55.0,29.93,SE,126,4.0,9.0,54,0.00,,,0.00,,2013-07-29 00:43:00,
2013-07-28 17:52:00,72.0,55.0,29.93,ESE,120,3.0,9.0,56,0.00,,,0.00,,2013-07-29 00:52:00,
2013-07-28 18:01:00,71.0,55.0,29.93,SE,140,3.0,8.0,57,0.00,,,0.00,,2013-07-29 01:01:00,
2013-07-28 18:11:00,71.0,55.0,29.93,SE,140,3.0,8.0,57,0.00,,,0.00,,2013-07-29 01:11:00,
2013-07-28 18:23:00,71.0,56.0,29.92,SSE,160,2.0,10.0,59,0.00,,,0.00,,2013-07-29 01:23:00,
2013-07-28 18:42:00,71.0,55.0,29.92,SSE,154,3.0,7.0,58,0.00,,,0.00,,2013-07-29 01:42:00,
2013-07-28 18:59:00,70.0,55.0,29.92,SE,135,3.0,7.0,59,0.00,,,0.00,,2013-07-29 01:59:00,
2013-07-28 19:12:00,70.0,55.0,29.92,ESE,107,1.0,6.0,59,0.00,,,0.00,,2013-07-29 02:12:00,
2013-07-28 19:33:00,69.0,55.0,29.92,SSE,168,1.0,5.0,62,0.00,,,0.00,,2013-07-29 02:33:00,
2013-07-28 19:44:00,69.0,55.0,29.92,SSE,153,2.0,4.0,62,0.00,,,0.00,,2013-07-29 02:44:00,
2013-07-28 20:02:00,67.0,54.0,29.92,SSW,193,0.0,3.0,64,0.00,,,0.00,,2013-07-29 03:02:00,
2013-07-28 20:22:00,67.0,55.0,29.93,South,185,0.0,4.0,65,0.00,,,0.00,,2013-07-29 03:22:00,
2013-07-28 20:58:00,66.0,54.0,29.92,SSW,200,0.0,2.0,66,0.00,,,0.00,,2013-07-29 03:58:00,
2013-07-28 21:01:00,65.0,54.0,29.92,SSW,201,0.0,2.0,68,0.00,,,0.00,,2013-07-29 04:01:00,
2013-07-28 21:11:00,65.0,54.0,29.92,SSW,201,0.0,2.0,68,0.00,,,0.00,,2013-07-29 04:11:00,
2013-07-28 21:43:00,64.0,54.0,29.93,South,190,0.0,2.0,71,0.00,,,0.00,,2013-07-29 04:43:00,
2013-07-28 21:53:00,63.0,54.0,29.94,South,190,0.0,0.0,73,0.00,,,0.00,,2013-07-29 04:53:00,
2013-07-28 22:02:00,62.0,53.0,29.94,South,190,0.0,3.0,73,0.00,,,0.00,,2013-07-29 05:02:00,
2013-07-28 22:12:00,62.0,53.0,29.94,South,190,0.0,3.0,73,0.00,,,0.00,,2013-07-29 05:12:00,
2013-07-28 22:22:00,62.0,53.0,29.95,South,190,0.0,3.0,73,0.00,,,0.00,,2013-07-29 05:22:00,
2013-07-28 22:32:00,62.0,54.0,29.95,South,190,0.0,2.0,74,0.00,,,0.00,,2013-07-29 05:32:00,
2013-07-28 22:42:00,62.0,54.0,29.95,South,190,0.0,2.0,74,0.00,,,0.00,,2013-07-29 05:42:00,
2013-07-28 22:53:00,61.0,53.0,29.95,SSE,163,1.0,3.0,75,0.00,,,0.00,,2013-07-29 05:53:00,
2013-07-28 23:02:00,61.0,53.0,29.95,SSE,163,0.0,3.0,76,0.00,,,0.00,,2013-07-29 06:02:00,
2013-07-28 23:12:00,61.0,53.0,29.95,SSE,163,0.0,3.0,76,0.00,,,0.00,,2013-07-29 06:12:00,
2013-07-28 23:22:00,60.0,53.0,29.95,SSE,163,0.0,4.0,77,0.00,,,0.00,,2013-07-29 06:22:00,
2013-07-28 23:32:00,60.0,53.0,29.95,SSE,163,0.0,4.0,77,0.00,,,0.00,,2013-07-29 06:32:00,
2013-07-28 23:43:00,60.0,53.0,29.95,SSE,163,0.0,2.0,78,0.00,,,0.00,,2013-07-29 06:43:00,
2013-07-28 23:52:00,60.0,53.0,29.95,SSE,157,1.0,7.0,78,0.00,,,0.00,,2013-07-29 06:52:00,